Torna al catalogo

ARIANE 5 R/B

AttivoHEO
NORAD 38333·ROCKET BODY·🇫🇷 France

Lanciato May 15, 2012 da Guiana Space Centre

Loading…

Prossimi Passaggi (prossime 24 ore)

TLE

AggiornatoSource: Space-Track

Epoca: Sep 14, 2026, 02:50 UTC

1 38333U 12023C   26257.11818615  .00003366  00000-0  10501-2 0  9998
2 38333   1.5420 248.2046 7062426 111.2481 332.6021  2.55503634126172

Traccia ARIANE 5 R/B in tempo reale con AllMySat

Download on the App Store